Weather in Mordovskaya Kozlovka

Russia / Republic of Mordovia     54°27′44″N   43°18′40″E
temp.,
°C
wind,
m/s
gust,
m/s
humid.,
%
clouds,
%
prec.,
mm/h
press.,
hPa
HPBL,
m
27 september, mon
mon2700:00+9nne51092100 0.4 1008471
03:00+8nne61293100 0.5 1010577
06:00+8n61288100 0.5 1012585
09:00+8n51086100 0.5 1013488
12:00+11n7977100 0.1 1014938
15:00+10n5985100 0.2 10151026
18:00+8nne5891100 0.9 1017959
21:00+6ene5893100 1.9 1019941
28 september, tue
tue2800:00+5ne5894100 0.2 1021833
03:00+5ne5996100 0.4 1023766
06:00+4ne5984100 0.0 1025915
09:00+4ne5981100 0.0 1027945
12:00+8ene68575 0.0 10281119
15:00+9ne57465 0.0 10281347
18:00+6nne376318 0.0 1030143
21:00+4nne37730 0.0 1032141
29 september, wed
wed2900:00+3nne33785 0.0 103254
03:00+2nne348286 0.0 103364
06:00+1n358362 0.0 103397
09:00+6nne356568 0.0 1034382
12:00+9ne344823 0.0 10331162
15:00+10nne344495 0.0 10331434
18:00+7n226299 0.0 103329
21:00+4nne227012 0.0 103427
30 september, thu
thu3000:00+3nne227450 0.0 103411
03:00+3n22775 0.0 103513
06:00+2n22815 0.0 103512
09:00+7nne22635 0.0 1036263
12:00+11nne11515 0.0 1035816
15:00+11nnw124918 0.0 10341229
18:00+8wnw2265100 0.0 103414
21:00+7wnw227187 0.0 103530
1 october, fri
fri100:00+6wnw227936 0.0 103524
03:00+6w3677100 0.0 1035157
06:00+7wnw3782100 0.0 1035210
09:00+9nw3681100 0.0 1035265
12:00+12nw4570100 0.0 1035582
15:00+13nw356899 0.0 1034772
18:00+11nw367999 0.0 1034156
21:00+10nw258298 0.0 1034124